www.pogodaiklimat.ru

АРХИВ ПОГОДЫ в Чикаго

Время (UTC), дата Ветер
(напр.,м/с)
 
Видим.   Явления Облачность Т
(С)
Тd
(С)
f
(%)
Тe
(С)
Тes
(С)
Комфортность

P
(гПа)

Po
(гПа)
Тmin
(С)
Tmax
(С)
R
(мм)
SD
(см)
13:51 24.03   16 км    10/10 1800 м  +7.8  +1.1  63  +7  +7    1020.2  995.5         
14:51 24.03 В  16 км    10/10 1800 м  +8.3  +1.7  63  +7  +7    1020.3  995.5         
15:51 24.03 Ю  16 км    10/10 900 м  +8.3  +2.2  65  +6  +6    1020.0  995.2         
16:51 24.03 Ю  16 км    10/10 600 м  +8.9  +5.0  77  +6  +6    1019.3  994.6  +6.7  +8.9     
17:11 24.03 ЮВ  16 км    10/10 600 м  +8.9  +5.0  77  +8  +8      994.6         
17:51 24.03   16 км    10/10 780 м  +9.4  +5.0  74  +9  +9    1018.6  993.9         
18:04 24.03 С  13 км    10/10 780 м  +8.9  +5.6  80  +6  +6      993.6         
18:51 24.03 С  14 км    10/10 780 м  +9.4  +6.1  80  +8  +8    1018.1  993.6         
19:51 24.03 СВ  13 км  слабый дождь  10/10 540 м  +10.0  +5.0  71  +8  +8    1017.9  993.2         
20:51 24.03 С  10 км  слабый дождь  10/10 510 м  +9.4  +6.7  83  +7  +7    1018.0  993.6         
21:51 24.03 СВ  11 км  слабый дождь  10/10 360 м  +7.8  +6.1  89  +3  +3    1018.2  993.6         
22:51 24.03 СВ  11 км  слабый дождь  10/10 480 м  +3.3  +1.1  85  -4  -4    1019.4  994.6  +3.3  +10.0  1.0   
23:51 24.03 СВ  16 км  слабый дождь  10/10 270 м  +2.2  +1.1  92  -5  -5    1019.9  995.2         
00:02 25.03 СВ  16 км  слабый дождь  10/10 270 м  +2.2  +1.1  92  -5  -5      995.2         
00:20 25.03 СВ  9
{13} 
16 км  слабый дождь  10/10 240 м  +2.2  +0.6  89  -5  -5      995.5         
00:51 25.03 СВ  16 км  слабый дождь  10/10 240 м  +1.7  +0.6  92  -5  -5    1021.0  996.2         
01:51 25.03 СВ  10
{13} 
16 км  слабый дождь  10/10 270 м  +1.1  0.0  92  -7  -7    1021.1  996.2      0.3   
02:51 25.03 С  16 км    10/10 270 м  +1.1  -0.6  88  -6  -6    1021.5  996.5         
03:51 25.03 С  8
{12} 
16 км    10/10 390 м  +1.1  -0.6  88  -6  -6    1021.5  996.5         
04:51 25.03 С  11
{15} 
16 км    10/10 390 м  +1.1  -1.1  85  -7  -7    1021.0  996.2  +1.1  +3.3  0.3   
05:51 25.03 С  10
{14} 
16 км    10/10 390 м  +1.1  -1.1  85  -7  -7    1021.5  996.5         
06:51 25.03 СВ  10  16 км    10/8 1650 м
[средняя] 
+1.1  -1.1  85  -7  -7    1021.8  996.9         
07:51 25.03 С  10  16 км    10/10 1650 м  +1.1  -1.1  85  -7  -7    1021.8  996.9         
08:43 25.03 С  11
{13} 
16 км    10/10 420 м  +1.1  -1.1  85  -7  -7      996.9         
08:51 25.03 С  10
{15} 
16 км    10/10 420 м  +1.1  -1.1  85  -7  -7    1021.8  996.9         
09:51 25.03 С  11
{15} 
16 км    8/8 420 м  +1.1  -1.1  85  -7  -7    1022.4  997.5         
10:37 25.03 СВ  16 км    8/8 450 м
[средняя] 
+0.6  -1.7  85  -7  -7      998.5         
10:51 25.03 СВ  10
{14} 
16 км    8/8 450 м
[средняя] 
+0.6  -1.7  85  -8  -8    1023.8  998.8  +0.6  +1.1     
11:51 25.03 СВ  10
{13} 
16 км    8/8 570 м
[средняя] 
+0.6  -2.2  81  -8  -8    1024.6  999.5         
12:51 25.03 СВ  10
{14} 
16 км    8/8 660 м  +1.1  -3.3  72  -7  -7    1025.0  999.8         
13:23 25.03 СВ  10
{13} 
16 км    5/5 660 м  +1.7  -3.9  66  -6  -6      1000.2         
13:51 25.03 СВ  10
{14} 
16 км    2/2 720 м  +2.2  -5.0  59  -5  -5    1025.5  1000.2         
14:51 25.03 СВ  9
{13} 
16 км    ясно  +2.8  -5.6  54  -4  -4    1025.9  1000.5         
15:51 25.03 СВ  8
{11} 
16 км    ясно  +3.3  -6.1  50  -3  -2    1026.4  1001.2         
16:51 25.03 СВ  8
{10} 
16 км    ясно  +4.4  -6.1  46  -1  0    1026.6  1001.5  +0.6  +4.4     
17:51 25.03 СВ  16 км    ясно  +4.4  -6.7  44  -1  +2    1026.6  1001.5         
18:51 25.03 СВ  16 км    ясно  +4.4  -7.2  43  -1  0    1026.3  1001.2         
19:51 25.03 СВ  16 км    ясно  +5.0  -11.1  30  -0  +1    1026.2  1001.2         
20:51 25.03 С  16 км    2/0 7500 м
[верхняя] 
+4.4  -11.7  30  -1  -1    1026.4  1001.2         
21:51 25.03 С  16 км    2/0 7500 м
[верхняя] 
+3.3  -13.3  28  -2  -2    1027.1  1001.8         
22:51 25.03 С  16 км    2/0 7500 м
[верхняя] 
+2.2  -13.3  31  -3  -3    1027.6  1002.5  +2.2  +5.6     
23:51 25.03 С  16 км    2/0 7500 м
[верхняя] 
+0.6  -11.1  41  -5  -5    1027.6  1002.5         
00:51 26.03 С  16 км    ясно  -0.6  -9.4  51  -6  -6    1028.1  1002.8         
01:51 26.03 С  16 км    2/0 7500 м
[верхняя] 
-0.6  -8.3  56  -6  -6    1028.8  1003.5         
02:51 26.03 С  16 км    2/0 7500 м
[верхняя] 
-2.2  -7.8  65  -7  -7    1029.2  1003.8         
03:51 26.03 С  16 км    ясно  -2.8  -7.2  72  -8  -8    1029.5  1004.1         
04:51 26.03 С  16 км    ясно  -2.8  -7.8  68  -8  -8    1029.5  1004.1  -3.3  +2.2     
05:51 26.03 С  16 км    ясно  -2.8  -8.3  66  -6  -6    1029.7  1004.5         

 

Местоположение метеостанции Chicago-O`Hare International Airport: широта 41.9797 долгота -87.9044 высота над уровнем моря 203 м.

В архиве по умолчанию представлена погода в Чикаго за последние 1-2 суток. Обновление информации о фактической погоде в базе происходит ежечасно! Архивные данные за месяц целиком и за предыдущие месяцы Вы можете получить, выбрав интересующий диапазон дат из раскрывающегося списка и нажав кнопку "Ввод!".

Внимание! Архив погоды МЕТАР в базе сайта в настоящее время начинается c 1 января 2011 г. Нет смысла пытаться выбрать более раннюю дату.

Внимание! Время в таблицах - всемирное. Для получения местного времени необходимо прибавить поправку, которая в Чикаго равна -6 ч.

Ветер - указаны скорость ветра в м/с и направление, откуда дует ветер: С - северный, СВ - северо-восточный, В - восточный, ЮВ - юго-восточный, Ю - южный, ЮЗ - юго-западный, З - западный, СЗ - северо-западный.
Видимость - горизонтальная дальность видимости в метрах или километрах. При видимости от 1 до 10 км при отсутствии осадков обычно наблюдается дымка, при ухудшении видимости до 1 км и менее - туман. В сухую погоду видимость может ухудшаться дымом, пылью или мглою.
Атмосферные явления - указаны явления, наблюдавшиеся в указанный момент времени.
Облачность - указаны через наклонную черту верхняя и нижняя облачность в баллах и высота нижней границы облаков в метрах. Внимание: облачность, как и прочие метеорологические величины в США измеряются автоматическими метеостанциями. Указанные значения в баллах носят условный характер и показывают процент времени, в течение которого, в среднем, лазерный луч высотомера отражался от облаков обратно.
T - Температура воздуха - температура, измеренная на высоте 2 м над землей.
Td - Температура точки росы - температура, при понижении до которой содержащийся в воздухе водяной пар достигнет насыщения.
f - Относительная влажность воздуха - влажноcть воздуха, измеренная на высоте 2 м над землей.
Te - Эффективная температура - температура, которую ощущает одетый по сезону человек в тени. Характеристика душности погоды. При расчете учитывается влияние влажности воздуха и скорости ветра на теплоощущения человека.
Tes - Эффективная температура на солнце - температура, которую ощущает человек, с поправкой на солнечный нагрев. Характеристика знойности погоды. Зависит от высоты солнца над горизонтом, облачности и скорости ветра. Ночью, в пасмурную погоду, а также при ветре 12 м/с и более поправка равна нулю.
P - Атмосферное давление - приведенное к уровню моря атмосферное давление.
Po - Атмосферное давление - измеренное на уровне метеостанции атмосферное давление.
Tmin - Минимальная температура - минимум температуры воздуха на высоте 2 м над землей.
Tmax - Максимальная температура - максимум температуры воздуха на высоте 2 м над землей.
R - Количество осадков - Количество выпавших осадков за 3 или 6 часов, мм.
SD - Снежный покров - Высота снежного покрова, см.